Theta_e
314 323 325 322 325 321 313 315 313 313 316 312 312 314 313 313 312 309 310 310 308 311 313 312 310 310 311 309 305 303 302 301 300 299 299 299 299 298 298 297 297 296 296 296 296 295 295 294 293 293 293 293 293 293 292 291 291 291 292 292 291 291 291 291 291 291 291 291 290 290 290 289 290 290 291 291 291 291 291 291 291 290 289 289 289 289
317 324 326 324 323 318 312 312 312 311 312 311 312 313 312 312 311 309 310 310 307 310 314 312 310 309 309 308 305 302 302 300 300 299 299 298 298 298 298 297 297 296 296 296 296 295 295 294 293 293 293 292 292 292 291 291 291 291 291 291 291 291 291 291 291 291 291 290 290 289 289 289 289 290 290 290 290 290 290 290 290 290 289 289 289 290
323 325 327 321 312 310 310 311 311 311 311 311 312 312 313 312 312 312 312 310 307 309 314 314 310 308 309 308 305 302 301 301 301 301 300 299 298 298 298 298 297 296 295 295 295 295 294 294 293 292 292 292 292 291 291 291 291 291 290 290 290 290 291 291 291 291 290 290 290 289 289 289 290 290 290 290 290 289 290 290 290 289 289 289 289 290
326 331 323 311 306 309 312 313 312 311 311 313 312 312 314 313 312 314 313 312 311 310 311 312 309 308 308 309 307 303 301 302 302 301 301 300 299 298 298 298 297 296 295 294 295 294 294 293 293 292 292 292 291 291 290 290 290 290 290 290 290 290 291 291 290 290 290 290 290 289 290 289 289 290 290 290 290 289 289 289 289 289 288 288 288 289
323 322 311 307 310 312 312 313 314 312 314 319 316 313 313 313 312 312 312 311 312 313 313 310 308 309 309 308 309 305 301 302 301 300 300 299 298 299 299 298 297 296 296 295 294 294 293 293 292 292 292 291 291 291 290 290 289 289 289 290 290 290 290 290 290 290 290 290 290 290 290 290 289 289 289 289 289 289 289 289 289 289 288 287 286 286
318 312 307 311 315 314 313 316 318 315 316 321 320 315 314 314 313 313 313 311 311 314 313 309 309 313 310 308 309 306 302 301 300 298 298 298 298 298 298 297 296 296 295 295 294 293 293 292 292 292 291 291 291 290 290 289 289 289 289 289 290 290 290 290 290 290 290 290 289 289 289 288 288 288 288 287 286 287 288 288 289 289 288 288 287 286
313 308 309 316 317 317 315 316 320 316 314 316 317 316 314 312 312 311 311 311 313 313 309 308 310 310 308 308 310 307 304 302 299 298 297 297 297 298 298 297 296 295 295 294 294 293 293 292 292 292 291 291 291 290 289 289 289 289 289 289 290 290 290 290 290 290 290 289 289 289 288 287 287 286 287 287 286 286 286 287 288 288 288 287 287 287
312 308 312 316 316 317 315 316 318 315 315 318 314 312 312 310 310 311 308 309 311 310 307 307 308 307 307 308 309 307 306 303 300 298 297 296 297 297 297 297 295 295 294 294 293 293 292 292 292 292 291 291 291 290 289 289 289 289 289 289 289 289 289 289 290 289 289 289 289 288 288 287 286 285 286 286 286 286 286 287 288 287 287 287 286 286
310 311 315 316 315 315 317 321 319 314 316 318 312 308 308 307 308 308 307 309 309 307 307 308 307 307 309 310 307 304 304 304 301 299 297 296 296 297 297 296 295 295 294 293 293 293 292 292 291 291 291 291 290 289 289 289 289 289 289 289 289 289 289 289 289 289 289 289 288 288 287 286 286 285 285 285 285 286 286 286 287 287 286 286 286 285
310 310 313 316 317 316 319 321 317 316 315 311 308 308 309 309 308 307 306 308 308 307 308 308 307 308 312 314 308 303 303 304 302 300 298 296 296 296 296 296 295 294 294 293 293 292 292 292 291 291 291 290 290 289 289 289 289 289 289 289 289 289 289 289 289 289 289 288 288 287 286 286 286 285 284 284 285 285 285 286 287 286 285 285 285 285
309 305 307 310 312 313 315 311 307 310 308 305 309 311 313 313 310 309 309 308 309 310 310 310 308 308 311 312 308 307 308 306 304 302 298 296 296 296 296 295 295 294 293 293 293 292 292 292 291 291 290 290 289 289 289 289 289 289 289 289 289 289 289 289 289 289 288 288 287 287 286 285 285 285 284 284 284 284 284 285 286 286 285 284 284 284
311 308 308 307 307 307 309 308 305 306 305 307 313 313 313 315 313 313 312 310 312 316 314 309 307 307 309 311 309 307 306 305 305 303 300 298 296 295 295 295 294 294 293 293 292 292 292 292 291 290 290 289 289 289 289 289 289 289 289 289 289 289 289 289 289 289 288 288 287 286 286 285 284 284 283 283 283 283 283 284 285 284 284 284 283 283
316 314 309 306 306 306 310 312 309 310 309 310 313 311 312 317 318 317 315 313 315 317 311 303 304 306 307 309 309 308 305 304 304 302 300 299 295 295 295 294 294 294 293 293 292 293 292 292 291 290 290 289 289 289 289 289 289 289 289 289 288 289 289 289 288 288 288 287 287 286 285 285 284 283 282 282 282 282 283 283 283 283 282 282 282 281
320 318 309 308 309 307 310 313 313 316 312 309 311 312 315 318 318 318 318 317 318 318 309 300 302 307 307 307 307 307 304 301 301 301 300 299 296 295 295 294 294 293 293 293 292 293 292 292 291 290 290 289 289 289 289 289 289 289 289 288 288 288 288 289 288 288 288 287 287 285 285 284 283 283 282 281 281 282 282 283 282 282 281 281 281 281
320 322 316 313 313 308 308 311 317 321 312 307 310 313 316 317 318 318 319 319 318 317 311 302 303 310 311 307 303 300 296 295 299 301 299 298 296 295 294 294 294 293 293 293 293 293 292 292 291 290 289 289 289 289 289 289 289 289 288 288 288 288 288 289 288 288 288 287 286 285 284 284 283 282 282 281 281 281 282 283 282 282 281 280 280 280
314 321 317 308 307 308 309 307 309 316 314 307 307 309 312 314 316 316 315 315 312 310 308 305 307 311 308 303 298 295 293 293 295 296 295 296 295 294 294 293 293 293 293 293 293 292 292 292 291 290 289 289 289 289 289 289 289 288 288 288 288 288 288 288 288 288 288 287 286 285 284 283 283 282 282 281 282 282 282 283 282 282 281 280 280 279
313 319 313 304 304 305 306 304 303 310 314 308 305 309 311 310 310 311 311 310 307 308 310 309 309 309 308 304 297 295 296 294 293 293 293 293 293 293 293 293 293 293 293 293 293 292 292 291 290 289 289 289 289 290 289 289 288 288 288 288 288 288 288 288 288 288 287 286 286 285 284 284 283 282 282 281 282 282 283 283 283 282 281 280 279 279
315 317 311 307 310 304 299 302 301 301 307 309 309 309 309 306 305 308 310 309 307 308 311 310 309 309 312 309 298 294 297 295 293 293 292 292 292 292 292 293 293 293 293 293 292 292 291 291 290 289 289 289 290 290 289 288 288 288 288 288 288 288 288 288 288 287 286 285 285 285 285 284 283 282 281 281 282 282 283 283 283 282 281 280 278 278
314 315 312 305 308 304 299 304 307 301 301 306 307 305 307 310 308 307 309 310 310 311 312 312 311 310 312 310 302 298 297 295 293 292 293 293 292 291 292 293 293 293 293 292 292 292 291 290 289 289 290 290 289 289 288 288 288 288 288 288 288 288 288 288 287 287 286 285 284 284 284 284 283 282 281 281 282 282 282 282 282 281 281 279 278 277
311 315 315 304 301 303 302 306 312 308 301 300 301 302 304 308 309 308 307 308 311 312 313 314 313 312 312 311 309 303 297 295 294 292 293 293 291 291 292 293 293 293 293 292 292 291 291 290 290 290 290 289 289 288 288 288 288 288 288 288 288 287 287 287 287 286 286 285 284 284 284 284 282 281 281 282 283 283 283 282 281 281 280 279 278 277
310 314 316 306 301 304 306 307 310 311 306 301 302 303 302 303 306 307 305 305 309 310 312 312 312 314 310 307 309 305 299 296 294 293 293 293 291 292 292 293 293 293 292 292 291 291 291 291 290 290 290 289 288 288 288 288 288 288 288 287 287 287 287 287 286 285 285 284 284 284 284 283 282 281 282 283 284 284 283 282 280 279 279 278 277 276
311 313 314 309 305 306 308 308 307 309 309 306 305 305 304 303 306 307 306 306 306 307 310 311 312 314 307 302 305 305 300 296 294 294 294 292 291 292 293 293 293 293 292 292 291 291 291 291 290 290 289 289 288 288 288 288 288 288 287 287 287 287 287 286 286 285 284 284 284 284 284 283 282 282 283 284 284 284 283 281 280 279 278 277 276 275
308 311 311 310 310 307 305 304 302 303 304 305 305 306 305 304 305 308 310 308 305 304 306 306 308 310 305 301 303 303 299 295 294 294 293 292 292 292 293 293 293 293 292 292 291 291 291 290 290 289 289 289 288 288 288 288 287 287 287 287 287 287 286 286 285 284 284 284 283 283 283 282 282 282 283 284 284 283 282 280 279 277 276 276 276 275
306 310 311 311 313 309 302 301 300 299 300 302 304 304 304 304 305 307 309 308 307 306 304 304 307 308 302 300 300 298 296 294 293 294 293 292 292 293 294 293 293 292 292 291 291 291 290 290 290 289 289 288 288 288 287 287 287 287 287 287 287 286 286 285 285 284 284 283 283 283 282 282 282 283 284 284 283 282 280 278 277 276 275 275 275 274
309 313 312 312 315 313 307 304 304 302 300 301 303 303 303 304 305 305 304 305 307 307 305 305 309 309 301 298 298 296 295 295 294 293 293 292 292 293 293 293 292 292 292 291 291 290 290 290 289 289 288 288 288 287 287 287 287 287 287 287 286 286 286 285 284 284 283 282 282 282 282 282 283 283 283 283 282 281 279 277 276 275 274 273 273 273
311 313 312 312 314 314 312 310 312 310 302 299 301 301 301 302 303 304 304 304 305 306 306 306 308 308 301 297 298 296 295 296 294 292 293 293 293 293 293 292 292 291 291 291 290 290 290 289 289 288 288 287 287 287 287 287 287 287 287 287 286 286 285 285 284 283 282 282 282 282 282 282 283 283 283 282 281 279 277 275 274 273 273 273 272 272
313 311 309 311 313 313 312 311 313 312 305 303 303 301 300 301 302 303 304 305 306 306 306 306 306 307 304 301 300 297 294 295 295 293 291 292 292 293 292 292 292 291 291 291 290 290 290 289 288 288 288 287 287 287 287 287 287 287 287 286 286 285 284 284 283 283 282 282 282 281 282 282 283 283 283 282 280 278 276 275 274 273 272 272 271 271
313 311 308 310 310 311 312 311 311 311 308 308 308 305 301 300 301 303 303 304 305 306 306 307 306 307 307 305 303 299 295 295 295 292 291 291 292 292 292 292 291 291 291 290 290 290 289 288 288 288 287 287 287 287 287 287 287 287 286 286 285 284 284 283 282 282 282 281 281 281 282 282 283 282 282 281 279 277 275 275 274 272 272 271 271 270
311 311 309 309 308 308 310 310 309 309 308 307 308 308 304 301 300 302 302 302 304 305 306 307 307 307 307 306 305 302 297 295 294 293 292 293 292 292 291 291 291 291 291 290 290 289 289 288 288 288 287 287 287 287 287 287 287 286 286 286 285 284 283 282 281 281 281 281 281 281 282 282 282 282 281 279 278 277 276 276 274 272 271 271 271 269
306 310 309 308 308 307 307 307 307 307 306 306 306 307 306 303 301 301 301 302 303 304 305 305 305 306 306 305 304 303 299 296 295 293 292 292 291 291 291 291 291 291 290 290 289 289 289 288 288 287 287 287 287 287 287 287 286 286 286 285 285 284 283 282 281 281 281 280 280 281 281 282 282 281 280 279 278 277 277 276 275 273 272 272 270 269
304 308 309 307 307 307 307 307 307 306 306 306 306 306 306 305 304 303 303 303 303 303 303 303 303 304 303 303 303 301 299 297 295 293 291 291 292 291 291 291 291 291 290 290 289 289 289 288 287 287 287 287 287 287 287 286 286 286 285 285 284 283 282 281 281 281 280 280 280 281 281 282 282 281 280 279 279 278 277 277 275 273 272 271 271 270
303 306 308 308 307 308 308 307 306 305 304 304 305 305 304 305 306 305 305 305 305 304 304 303 303 303 303 302 301 299 298 297 295 292 290 291 292 291 291 291 291 291 290 290 289 289 288 287 287 287 287 287 287 287 286 286 286 286 285 284 283 282 281 281 280 280 280 280 280 281 281 282 282 281 281 280 280 279 278 277 275 273 271 271 271 270
303 305 307 307 308 309 307 304 303 304 305 306 307 306 305 304 304 305 305 305 304 304 304 304 304 304 303 302 301 300 299 298 296 292 291 291 291 291 291 291 291 291 290 289 289 289 288 287 287 287 287 287 287 287 286 286 285 285 285 284 283 282 281 281 280 280 280 280 280 281 281 282 282 282 281 280 280 279 279 277 275 272 271 271 272 271
302 304 305 306 309 308 303 300 302 305 309 310 308 308 308 306 304 304 304 304 304 303 303 304 304 303 303 302 301 300 298 297 296 295 295 294 292 291 291 291 291 290 290 289 289 288 287 287 287 287 287 287 286 286 286 285 285 285 284 284 283 282 281 280 280 280 279 280 280 281 281 282 282 281 281 280 280 279 279 277 275 272 271 271 271 271
302 303 304 306 307 305 300 300 304 309 311 309 305 305 307 307 305 304 304 303 303 302 302 302 302 302 301 301 300 298 296 296 296 295 295 295 294 293 292 291 291 290 289 289 288 287 287 287 287 287 287 287 286 286 286 285 285 285 285 284 282 281 280 280 280 279 279 279 280 281 281 281 281 281 280 280 280 279 278 276 274 272 271 271 270 270
303 302 304 305 305 303 302 303 307 310 308 307 305 303 302 302 302 301 303 303 302 301 301 301 301 301 301 300 298 296 295 294 294 293 294 294 293 293 292 291 290 290 289 289 288 287 287 286 287 287 287 286 286 286 285 285 285 285 284 283 282 281 280 279 279 279 279 279 280 281 281 281 281 280 280 279 279 278 277 275 273 272 271 270 271 271
304 304 304 305 305 306 307 306 307 308 307 307 308 303 300 301 301 301 304 304 303 302 300 300 300 300 300 298 295 293 293 292 292 292 292 292 292 292 292 291 290 289 289 288 287 287 286 287 287 286 286 286 286 285 285 285 285 284 284 283 282 281 280 279 278 278 278 279 280 280 281 280 280 279 279 279 278 277 276 274 273 272 271 270 271 272
304 305 305 306 306 306 308 307 307 308 308 308 306 301 299 299 300 301 303 303 302 302 300 299 300 299 299 297 291 290 292 294 294 292 290 290 291 291 290 290 289 289 288 287 287 287 287 287 286 286 286 286 285 285 285 285 285 284 283 283 282 281 279 278 278 278 278 279 280 280 280 280 278 278 278 278 276 275 274 273 271 271 270 269 270 272
302 303 305 307 307 306 306 308 307 308 309 306 302 299 296 295 297 301 304 304 303 302 299 298 300 299 297 295 291 290 293 296 296 293 290 291 291 290 290 289 289 288 288 287 287 286 287 287 286 286 286 285 285 285 285 285 284 284 284 283 281 280 278 277 277 277 278 279 279 280 279 279 278 277 276 276 275 274 272 270 269 268 268 269 270 272
301 302 303 304 306 306 306 306 306 307 307 303 299 296 294 295 298 303 307 308 303 299 296 296 298 297 294 291 290 292 295 296 295 293 291 291 290 289 289 290 289 288 287 287 287 287 286 286 286 286 286 285 285 285 285 284 284 284 283 282 280 278 277 277 277 277 278 278 279 279 279 278 277 276 275 275 275 273 272 269 267 267 268 269 270 272
300 301 302 303 305 305 305 306 306 306 305 301 296 294 294 296 301 305 308 306 299 294 293 295 296 295 293 290 290 293 294 294 294 293 291 290 289 289 289 289 288 287 287 287 287 287 286 286 286 286 285 285 285 284 284 284 284 283 282 281 279 277 277 276 276 277 277 278 278 279 278 277 276 275 275 275 274 273 272 269 267 267 268 269 271 273
300 300 301 302 303 303 305 305 304 305 304 298 294 294 295 300 306 305 303 300 296 293 294 295 295 294 293 292 292 293 293 292 293 293 291 290 289 289 289 289 288 287 287 287 287 286 286 286 286 285 285 285 284 284 284 284 283 283 281 280 278 277 276 276 276 276 277 278 278 278 278 277 276 275 275 274 274 273 272 270 268 269 269 270 272 273
301 301 300 301 302 303 303 303 303 305 303 297 294 295 297 302 306 301 296 295 296 295 295 294 294 295 294 293 292 292 292 292 292 292 291 289 289 289 289 288 288 287 287 287 286 286 286 286 285 285 285 285 284 284 283 283 283 282 280 279 277 276 275 275 276 276 276 277 278 278 277 276 275 275 275 274 274 273 271 269 269 269 270 271 271 271
303 303 303 302 301 302 302 302 303 304 300 295 296 298 298 300 302 299 296 295 294 295 295 294 294 295 295 293 292 291 292 292 291 291 290 289 289 289 289 288 288 287 287 286 286 286 286 285 285 285 285 284 284 283 283 283 282 281 279 278 276 275 275 275 275 276 276 277 277 277 276 276 275 275 275 274 274 273 271 270 269 270 270 270 270 270
305 304 306 305 302 303 305 304 302 301 297 295 298 300 298 298 299 299 299 296 293 294 296 295 295 295 294 294 292 291 291 291 291 290 290 289 289 289 289 288 287 287 286 286 286 285 285 285 285 284 284 284 283 283 282 281 281 279 278 276 275 274 274 275 275 275 276 276 277 276 276 275 275 275 274 274 274 273 271 269 269 270 270 270 269 269
305 303 305 306 304 303 304 303 301 299 296 295 297 298 298 298 298 298 299 297 295 296 296 295 295 295 294 293 292 291 291 291 290 290 290 290 289 289 289 288 287 286 286 286 285 285 285 285 285 284 284 283 283 282 281 280 279 278 277 275 275 274 274 274 274 275 275 275 276 276 275 275 275 275 274 274 274 274 272 269 268 269 269 269 268 268
304 301 302 305 305 304 306 306 303 300 296 295 296 297 296 297 297 297 298 297 297 297 296 295 295 295 294 293 292 292 292 291 290 290 290 289 289 289 289 288 287 286 286 285 285 285 285 285 285 284 283 283 282 281 280 279 278 276 275 274 274 274 274 273 274 274 274 275 275 275 274 274 274 274 274 274 273 273 272 271 269 269 269 268 267 268
305 302 301 303 304 305 307 307 302 299 297 296 296 296 295 296 296 296 296 297 297 296 295 294 294 294 294 293 292 292 292 291 291 290 290 290 290 289 288 288 287 286 285 285 285 285 285 285 284 283 283 282 282 281 280 278 277 275 274 273 273 273 273 273 273 273 274 274 274 274 274 274 274 274 274 274 274 273 271 270 269 269 268 267 266 267
304 302 302 303 303 303 305 304 300 298 298 297 295 296 296 296 296 296 296 296 296 295 294 294 294 294 294 293 293 292 292 291 291 291 291 290 289 289 288 287 286 286 285 285 285 285 284 284 284 283 282 282 281 280 279 277 275 274 273 273 273 273 273 273 273 273 273 273 274 273 273 273 273 273 273 273 274 274 272 270 269 269 269 269 268 267
303 304 304 303 303 304 305 304 302 302 303 300 296 295 296 296 296 295 295 295 295 295 294 294 293 293 293 293 293 292 292 291 291 291 290 290 289 289 288 287 286 285 285 285 284 284 284 283 283 282 281 281 280 280 278 276 275 273 273 273 273 273 272 272 272 272 273 273 273 273 273 273 273 273 273 272 273 274 275 274 272 271 270 270 270 269
305 307 305 304 306 308 307 305 303 303 305 304 300 297 296 296 295 295 295 295 295 294 294 294 293 293 293 292 292 292 292 291 291 290 290 290 289 289 288 287 286 285 285 284 284 284 283 283 282 281 281 281 280 279 277 275 274 273 272 272 272 272 272 272 272 272 272 272 272 272 272 272 272 272 272 272 272 273 274 275 276 275 273 272 271 271
Wind_Speed
3 3 2 3 5 6 6 6 6 5 6 4 3 4 6 5 8 8 6 6 2 3 9 10 10 12 10 8 14 22 24 21 20 21 24 27 29 30 27 23 20 16 14 14 14 10 5 7 9 12 16 20 21 22 23 23 25 27 28 29 29 29 30 31 32 35 37 40 43 45 46 48 48 48 48 48 48 49 51 52 52 50 48 47 47 44
4 3 4 7 8 7 6 5 4 2 4 3 3 4 6 5 8 10 6 5 1 3 7 6 6 10 11 9 12 18 17 18 25 25 26 30 30 31 29 25 21 17 15 14 14 11 6 7 8 12 16 19 20 20 22 24 27 27 27 27 27 28 29 30 33 35 38 40 43 45 46 48 49 49 49 51 51 51 52 53 53 52 50 49 48 46
4 3 8 8 6 5 0 1 2 2 3 2 2 1 5 4 5 8 6 4 1 2 6 7 7 8 9 9 10 15 18 23 33 34 33 36 34 33 32 27 24 21 16 13 12 10 7 6 8 12 15 17 17 19 22 25 27 26 25 25 26 27 29 30 33 35 38 40 42 44 45 47 49 49 50 51 52 53 54 54 54 53 51 50 48 46
3 5 7 4 6 4 2 2 2 1 1 3 3 1 5 4 2 5 5 4 3 3 5 9 10 7 7 10 11 17 26 27 31 32 31 34 35 35 33 28 26 25 19 13 11 10 6 4 7 11 14 15 17 20 23 25 26 26 25 25 26 28 29 31 33 36 38 40 42 43 44 46 48 49 50 51 53 54 55 56 56 54 51 49 48 45
6 7 3 5 5 4 2 1 2 2 3 4 5 5 7 7 6 7 4 5 5 4 4 8 10 6 7 13 12 9 17 20 21 24 24 29 33 32 30 27 25 24 20 14 12 8 4 3 7 11 13 15 17 20 23 25 26 25 25 25 27 28 30 31 34 36 39 41 44 45 47 48 49 51 52 53 55 57 58 59 59 57 53 49 47 45
7 5 3 5 2 3 4 2 4 6 2 5 5 9 10 9 8 7 6 6 4 4 4 4 5 6 3 9 11 2 5 12 13 16 21 27 30 30 29 27 24 21 18 14 11 7 3 3 7 10 12 14 17 19 23 25 25 25 25 26 27 29 30 32 34 37 40 43 45 47 49 51 53 55 55 53 54 57 59 60 61 60 55 50 48 46
3 1 3 4 4 4 3 4 5 6 4 3 5 6 6 6 5 6 5 4 1 3 4 3 1 8 2 4 10 5 6 10 9 10 18 25 29 31 31 28 25 21 18 14 11 7 2 4 7 10 12 14 16 19 22 24 24 25 26 27 28 29 31 33 35 38 40 43 45 47 49 50 51 53 56 55 54 55 57 59 60 60 57 52 49 49
3 1 3 4 4 3 2 5 5 7 6 3 4 4 3 2 4 4 2 2 3 2 6 2 4 7 7 6 8 7 9 11 9 10 13 21 28 31 30 28 26 22 18 16 12 7 1 4 8 9 11 13 15 19 21 23 24 25 27 28 28 30 32 34 36 38 41 43 45 47 48 49 49 50 53 56 56 56 57 58 59 59 58 54 50 50
3 4 4 4 3 3 5 5 7 9 4 5 5 4 1 2 4 3 1 5 2 3 8 6 6 4 9 5 3 2 8 11 12 14 13 19 28 30 30 29 26 23 19 16 12 7 1 5 7 8 10 12 14 18 21 23 25 26 28 28 29 31 33 35 37 38 40 42 44 47 48 49 49 50 51 53 55 56 57 58 59 59 59 57 53 50
2 3 6 7 4 5 6 5 7 9 4 3 3 2 2 1 1 1 1 3 2 2 10 8 7 4 8 3 1 1 5 11 12 13 12 19 27 27 29 30 26 24 20 16 12 6 1 4 6 8 9 12 15 19 22 24 25 26 28 30 31 33 35 36 37 38 40 42 44 46 47 48 50 51 51 52 54 54 55 58 60 60 59 57 55 52
2 0 2 4 5 5 4 2 2 4 3 3 4 3 4 4 3 2 1 2 3 3 10 8 11 8 6 3 5 4 6 9 10 9 9 17 24 26 30 32 29 25 21 16 11 6 2 4 6 8 10 13 16 19 22 24 25 26 29 32 33 34 36 37 37 39 40 42 44 45 46 48 49 50 51 52 53 54 54 56 58 60 59 58 56 54
5 0 2 3 4 4 6 4 2 3 3 4 4 4 4 5 3 4 4 3 2 6 7 5 9 9 8 6 5 8 8 7 8 9 12 18 23 28 33 34 30 26 21 16 11 6 2 4 6 9 12 15 17 20 22 24 25 28 31 33 35 35 36 37 38 39 41 42 44 45 46 47 48 48 48 50 52 53 53 55 57 58 58 59 57 55
3 4 3 1 2 5 6 3 2 5 5 5 3 4 3 4 4 3 3 0 3 7 4 2 3 5 10 10 8 13 13 8 8 11 17 20 24 30 36 35 31 25 21 16 11 6 3 4 7 10 13 16 18 21 22 24 27 30 33 34 35 37 37 38 39 39 41 43 44 45 46 47 47 47 46 47 49 51 51 53 55 56 57 58 58 56
3 5 2 1 2 7 9 5 2 2 1 4 3 3 2 0 3 4 4 3 5 7 2 3 2 4 9 9 10 14 12 9 12 17 21 25 30 36 39 36 30 24 20 15 10 5 3 5 8 11 14 16 18 20 22 25 30 32 34 35 36 37 37 38 39 41 42 43 44 45 45 46 47 47 46 47 48 49 50 51 53 54 55 56 56 55
2 5 3 5 2 8 9 5 6 5 4 4 4 4 4 3 2 4 4 5 7 7 4 2 1 5 5 3 6 9 8 7 13 18 18 23 33 37 36 33 28 23 19 14 9 6 4 5 9 11 14 16 17 19 24 28 31 33 34 35 36 38 38 40 40 41 43 44 45 45 45 46 46 47 47 47 47 48 49 51 53 54 53 53 54 53
4 6 6 2 1 8 7 4 6 6 2 2 3 4 2 4 5 3 3 4 4 7 6 3 3 6 4 2 2 1 4 2 4 10 15 21 30 32 32 31 27 23 18 14 9 6 5 6 9 11 13 15 17 22 26 30 31 33 35 36 37 38 39 40 41 42 44 45 45 45 46 47 47 47 48 48 48 48 49 51 52 54 53 52 52 51
2 6 4 2 0 4 4 4 4 3 2 2 2 3 4 4 5 2 4 1 1 4 6 3 6 7 2 4 2 4 3 2 2 7 15 22 29 30 30 30 27 23 18 13 10 7 5 6 9 10 12 15 20 25 28 29 31 33 35 36 38 39 39 40 41 42 44 45 46 47 47 48 48 49 48 49 49 49 50 51 52 53 52 51 51 49
2 5 4 3 2 3 2 2 2 1 4 5 3 5 3 2 3 2 1 3 1 5 6 2 9 11 4 4 2 4 2 3 3 5 10 17 23 25 26 28 26 22 17 13 10 7 5 6 8 10 13 18 23 26 27 28 31 33 35 36 38 39 40 41 41 43 44 45 47 48 49 50 50 50 49 49 49 49 50 51 51 52 51 50 49 48
2 3 5 1 1 1 1 2 1 2 2 5 3 3 2 2 2 2 2 2 2 5 7 5 10 13 8 5 2 4 8 9 7 7 8 13 18 21 25 28 25 20 17 14 11 7 5 6 9 12 17 21 23 24 26 28 31 33 35 37 38 39 40 41 42 43 44 45 47 48 50 51 51 51 50 49 49 49 49 51 51 50 50 49 47 46
3 1 4 1 1 1 2 1 3 2 1 2 1 3 0 3 4 3 2 2 3 5 8 7 9 10 6 5 7 10 13 12 10 10 11 14 19 24 27 28 25 21 18 15 11 7 5 7 11 15 19 21 22 23 26 29 31 34 35 37 38 39 40 40 42 44 45 46 48 49 50 51 51 51 51 50 49 50 50 50 50 49 48 48 46 44
3 2 3 2 3 1 2 4 7 8 5 3 2 3 3 2 1 1 1 2 3 6 7 5 10 11 3 4 7 11 13 13 14 14 13 16 21 26 29 29 25 22 19 15 11 7 6 9 13 16 18 20 22 25 27 30 33 35 36 38 38 39 40 41 43 44 45 47 48 49 51 52 53 52 51 51 50 50 51 49 49 48 47 46 44 43
3 3 4 1 1 4 6 5 6 9 8 6 6 6 7 6 2 2 5 3 3 6 6 3 12 14 3 3 6 8 9 11 14 16 13 16 24 27 29 29 25 22 19 15 10 7 7 10 14 16 18 21 23 26 29 31 33 35 37 38 38 39 41 42 44 45 46 47 48 49 51 52 53 52 51 52 51 51 51 50 49 47 45 44 43 42
3 2 3 5 5 5 5 4 1 3 4 3 5 6 6 6 6 6 8 3 2 6 4 1 11 13 2 4 5 6 8 11 19 21 15 17 26 29 29 28 24 21 18 12 8 6 8 10 13 16 18 21 24 27 29 31 34 35 37 38 39 40 41 42 44 45 46 48 48 49 51 51 52 52 51 52 52 52 51 50 48 45 43 44 44 42
3 2 3 5 5 1 2 4 4 3 2 2 5 5 7 8 9 8 6 1 2 6 3 1 13 13 1 1 2 3 6 11 20 24 19 19 25 29 29 27 24 20 16 11 8 6 7 10 13 16 19 21 24 27 29 31 34 36 37 39 40 41 41 42 44 46 47 48 49 49 50 51 52 52 52 52 53 53 51 49 47 44 43 43 43 42
5 2 3 2 6 5 3 3 4 4 1 4 5 6 9 12 8 2 1 1 5 8 6 5 15 12 1 2 2 2 5 7 12 20 22 22 25 28 29 27 24 20 15 11 7 6 7 10 13 16 19 21 24 27 29 31 34 36 38 39 40 41 42 43 44 46 47 48 49 50 50 51 51 52 53 53 54 53 51 48 46 45 44 42 42 43
8 3 5 5 5 7 8 5 3 3 3 3 4 7 10 13 11 5 2 5 10 8 7 10 17 14 5 1 2 2 6 7 8 14 19 22 26 29 29 28 25 20 15 11 8 6 8 10 12 15 18 21 24 26 29 31 33 36 38 39 40 41 42 43 44 46 47 48 49 50 50 50 51 52 53 53 53 53 50 48 47 46 45 43 44 44
4 1 7 9 10 12 14 12 3 5 3 5 7 10 11 11 13 10 5 10 10 4 9 19 18 18 18 9 5 6 6 8 9 10 14 20 25 29 31 29 25 20 15 11 8 7 8 9 12 15 18 21 23 26 28 31 33 36 38 39 40 41 42 44 45 46 47 48 49 50 50 51 52 53 54 54 53 52 50 48 48 47 47 46 45 44
3 4 11 12 15 18 19 17 5 3 8 13 14 12 11 11 13 13 14 17 8 2 14 25 17 18 26 17 8 10 10 9 8 10 16 23 27 30 31 28 24 18 14 11 9 8 7 9 12 15 18 20 23 26 28 30 32 34 37 39 40 42 43 44 46 46 47 48 49 50 51 52 53 54 54 54 53 52 51 50 49 48 48 47 44 42
3 8 12 10 15 20 21 17 7 6 10 14 20 18 10 12 16 19 22 22 14 10 20 27 20 20 25 17 9 11 11 11 13 18 24 26 28 30 30 27 23 19 15 13 10 7 6 9 12 15 18 20 22 25 28 29 32 34 37 39 41 42 43 44 46 47 47 48 49 50 51 52 54 54 54 53 52 52 52 51 50 48 48 46 43 41
4 8 9 8 12 17 18 14 8 11 13 16 26 24 13 14 19 20 22 24 21 20 25 27 27 28 26 18 12 11 13 17 20 22 24 25 28 30 30 28 24 20 17 14 10 6 6 9 12 14 17 20 22 25 28 30 32 35 38 40 41 43 43 45 46 47 48 49 49 50 51 53 54 55 54 53 53 52 52 51 49 48 47 45 42 41
5 5 3 4 7 15 16 11 8 12 13 18 29 26 14 15 18 18 22 23 19 21 27 27 24 25 25 18 13 13 14 15 14 17 21 26 30 32 30 28 25 21 18 14 9 5 7 9 11 13 16 19 22 24 27 30 32 35 38 40 42 43 44 45 46 46 48 49 49 50 51 53 55 55 54 53 52 52 51 50 49 47 45 44 42 41
6 3 1 4 6 13 9 3 4 5 6 17 30 27 17 16 19 19 20 20 19 21 24 20 16 20 21 11 6 9 12 12 10 14 20 25 31 33 31 30 26 21 17 12 7 5 7 8 10 13 15 18 21 23 26 29 32 35 38 40 42 43 44 44 45 46 47 48 49 50 52 53 55 56 55 54 53 53 51 50 48 46 45 43 42 42
6 5 2 4 7 10 2 4 3 2 4 15 20 16 17 20 22 20 18 21 22 18 15 14 16 19 15 6 4 7 9 10 11 17 22 24 30 33 32 30 25 19 15 11 6 5 6 8 9 12 14 17 20 22 26 29 32 35 38 40 42 43 44 44 44 45 47 48 49 50 52 53 55 56 56 54 54 53 51 50 48 46 45 43 40 40
6 7 5 5 4 5 1 5 4 0 9 13 5 5 12 17 19 20 21 24 21 16 15 17 18 17 12 9 10 8 8 12 16 24 28 27 30 33 31 27 22 17 14 9 5 4 5 6 8 10 13 16 19 22 25 28 31 34 37 39 41 42 43 44 44 44 46 47 48 50 51 53 55 55 55 54 53 53 52 50 48 46 44 43 41 41
9 9 5 3 3 2 2 5 1 8 12 7 1 5 8 11 13 16 21 24 21 17 18 20 21 21 17 15 13 9 11 16 19 23 26 28 32 34 31 25 21 17 14 9 5 4 4 5 7 9 12 15 18 21 25 28 31 34 36 38 41 42 42 43 43 44 45 47 48 49 51 53 55 55 55 54 54 54 53 50 48 46 44 42 41 42
10 8 4 3 3 1 2 4 7 10 12 15 9 4 5 3 4 6 14 23 20 15 16 19 23 24 20 16 13 10 12 14 13 15 22 27 29 30 28 23 20 17 12 8 6 4 3 4 6 9 12 15 18 21 24 27 31 33 36 38 40 42 42 42 43 43 45 46 47 49 50 52 54 55 55 54 54 55 54 51 49 46 44 43 41 40
10 9 5 4 5 5 5 7 8 7 16 24 17 4 6 5 6 7 10 19 13 10 14 18 20 22 16 9 7 10 12 9 6 9 19 24 24 22 21 18 17 15 11 7 6 4 2 3 6 9 12 15 18 21 24 27 30 33 36 38 40 42 42 42 42 43 44 45 46 48 49 50 53 54 54 55 55 55 54 52 50 46 43 42 41 39
9 8 8 7 6 5 6 7 6 5 13 16 7 2 4 6 8 8 3 12 7 10 15 16 17 18 10 4 10 16 15 7 1 7 18 24 21 19 19 18 17 13 9 8 6 4 2 4 7 9 12 15 18 21 24 27 30 33 36 38 40 42 42 41 42 42 43 44 45 47 49 49 51 52 53 54 54 54 54 52 50 47 43 41 41 39
6 3 5 6 5 5 6 8 6 8 15 10 3 3 6 12 12 8 2 9 7 9 14 15 13 12 6 9 14 14 10 5 5 8 21 26 24 23 23 20 17 12 10 9 6 4 3 4 7 9 12 15 17 21 23 26 30 32 36 38 39 40 41 40 41 41 42 44 45 46 48 49 50 50 51 52 53 53 53 51 48 46 43 41 41 38
6 2 3 6 9 9 9 8 5 7 12 7 7 5 10 18 15 7 3 10 6 7 13 14 10 9 11 16 16 11 7 9 8 10 25 30 26 25 23 18 15 12 10 9 7 5 4 5 7 9 12 15 18 21 23 26 29 31 35 37 38 39 39 39 40 40 41 43 44 45 46 47 49 50 49 50 51 51 50 47 44 43 40 38 37 34
3 3 5 8 11 11 10 8 6 8 10 7 10 13 17 17 10 1 8 9 6 9 15 17 14 14 18 21 17 11 12 13 7 11 27 32 27 26 22 16 15 13 10 10 8 6 6 6 8 9 12 15 18 21 23 26 28 31 34 36 36 38 38 38 39 39 40 41 43 44 45 46 47 49 48 48 49 49 48 44 41 39 37 36 35 32
3 3 4 7 7 7 7 6 5 10 8 12 18 20 21 12 2 8 6 9 16 16 18 20 19 20 24 27 24 19 16 12 9 16 29 33 29 27 23 18 16 14 11 11 10 8 7 7 8 9 12 15 17 21 23 26 28 30 32 35 36 36 37 37 38 38 39 40 41 43 44 46 47 47 47 47 47 48 46 42 39 37 36 35 34 32
7 5 4 7 5 3 3 4 5 10 7 22 23 13 12 9 8 7 8 9 18 24 22 21 22 22 26 28 25 20 16 14 17 23 30 32 29 25 22 18 16 14 13 12 10 9 7 7 8 10 13 15 17 21 23 25 27 29 31 33 35 35 35 36 37 37 38 39 40 42 43 44 46 46 47 47 46 47 45 41 38 37 35 35 35 36
7 7 5 6 6 6 5 10 9 5 10 32 27 9 17 25 16 11 13 9 13 22 24 22 22 23 26 28 25 22 21 21 25 28 30 30 28 24 21 18 16 16 15 13 12 10 8 7 8 10 13 15 17 20 23 25 27 28 30 32 33 34 35 35 35 36 37 38 39 41 42 43 44 45 46 46 46 46 44 40 38 37 36 35 36 39
12 12 6 4 8 9 8 11 7 2 14 37 29 8 17 32 21 11 18 18 17 22 24 23 24 24 24 27 27 27 26 26 29 29 28 28 27 24 21 19 18 17 16 14 12 10 8 7 8 10 13 15 18 20 22 24 27 28 30 31 32 33 34 34 35 36 36 37 38 40 41 43 43 44 45 45 45 45 44 41 39 37 37 36 36 40
9 8 3 1 6 9 11 13 8 4 11 32 33 15 13 26 24 17 19 21 23 24 23 23 26 26 25 27 28 29 29 28 29 29 28 26 26 24 22 21 19 17 16 15 12 10 8 8 8 10 12 15 17 19 21 23 25 27 29 30 31 32 32 33 34 35 35 36 37 38 40 42 43 44 45 45 45 44 42 41 40 38 37 37 37 41
4 8 6 4 5 6 10 15 12 11 15 27 34 24 16 22 28 25 22 20 21 24 24 23 22 23 26 28 28 30 31 30 30 31 29 27 26 25 23 22 20 18 16 14 12 9 8 8 9 10 12 14 16 19 21 22 24 25 27 28 29 30 30 31 32 33 34 35 36 37 39 41 42 44 45 46 46 45 42 41 41 38 37 38 39 43
7 12 9 10 10 10 13 10 2 10 22 30 34 31 24 25 30 29 24 21 20 22 25 24 20 21 26 29 29 31 32 31 30 29 29 28 27 25 24 22 21 18 16 14 12 10 8 8 9 10 12 14 16 18 20 22 23 24 25 26 28 28 29 29 30 31 32 33 35 36 37 39 41 43 45 46 47 46 45 44 43 41 38 37 38 41
9 11 8 9 11 13 18 10 4 3 12 21 30 36 35 32 33 31 26 24 23 25 27 26 22 22 23 26 30 33 32 31 28 26 28 30 28 25 25 24 21 19 17 14 12 10 8 8 8 9 11 14 16 18 20 21 22 23 24 25 26 27 28 29 29 30 31 32 33 35 36 37 39 41 43 45 46 46 45 44 44 44 40 35 33 35
9 9 5 5 8 12 18 17 12 7 8 14 28 40 39 34 34 33 30 28 28 29 30 29 26 23 22 25 31 33 31 29 28 27 29 30 28 26 26 25 22 20 17 14 12 10 8 7 7 9 11 13 16 18 19 20 21 22 23 24 25 26 27 28 29 29 30 31 33 34 35 36 38 39 41 43 45 46 46 43 43 43 42 38 34 32
14 15 11 10 15 19 20 21 22 17 12 15 27 39 41 38 36 37 36 34 32 32 31 31 29 27 26 28 32 33 30 28 28 30 30 29 27 27 26 24 22 19 16 14 12 9 7 6 6 8 10 13 15 17 18 19 20 20 21 22 23 25 26 27 28 29 30 31 32 33 34 35 36 38 40 42 43 46 47 47 44 42 42 41 38 36
Wind_Direction
51 37 347 265 255 221 206 186 189 197 187 219 250 245 248 242 271 273 260 272 210 202 259 243 242 258 249 223 212 205 201 204 206 200 197 195 192 193 194 194 189 181 181 190 202 211 248 293 331 353 357 359 358 357 357 357 358 355 351 347 345 345 344 343 341 341 341 341 341 340 338 337 336 336 334 334 335 335 336 336 336 333 327 322 318 314
60 22 268 239 223 198 203 205 204 209 188 218 230 262 278 232 256 274 271 290 200 178 267 269 255 260 253 246 221 201 196 207 206 201 200 198 196 197 197 195 189 180 180 190 203 214 243 285 330 354 357 359 358 357 357 357 356 353 350 348 347 346 344 344 343 341 341 341 341 339 338 336 335 335 335 334 335 336 336 336 337 334 329 325 321 317
9 285 257 244 199 163 181 213 193 223 194 203 190 267 290 253 268 291 299 323 35 183 274 288 274 259 256 258 232 202 201 213 211 207 205 200 196 197 197 195 188 181 180 186 199 212 236 286 339 355 357 359 358 358 357 356 356 353 351 350 348 346 344 344 342 341 340 339 339 337 336 335 334 333 333 333 334 335 335 336 337 335 331 326 322 317
328 252 244 210 152 151 327 346 142 259 264 208 181 202 269 276 296 285 310 344 324 267 263 279 275 256 251 258 248 215 209 216 218 215 213 206 200 199 198 196 190 186 187 189 192 202 232 299 347 355 357 360 358 358 358 357 356 353 351 349 347 345 344 343 341 339 338 336 336 335 334 333 332 331 332 332 333 334 334 335 336 335 331 326 323 319
255 254 206 126 122 161 200 329 148 182 293 258 205 203 247 269 251 245 294 339 320 305 280 292 289 257 218 236 252 226 209 219 219 213 213 210 206 202 199 196 193 191 195 196 191 199 236 318 352 356 358 359 359 358 357 356 353 351 350 348 346 344 342 341 339 338 337 336 334 334 333 332 332 331 332 333 332 334 334 334 335 335 332 327 323 320
260 265 153 132 105 138 164 233 194 175 250 298 237 214 231 252 256 267 326 353 341 324 314 353 311 272 206 225 250 262 199 223 211 203 207 206 203 200 199 196 191 192 198 199 195 200 237 340 356 358 360 359 358 357 355 353 350 349 349 347 344 342 341 340 338 337 336 335 335 334 334 333 332 332 332 332 331 331 333 333 334 334 333 329 324 320
256 318 99 137 147 136 163 250 227 166 141 295 257 205 209 229 254 283 336 353 290 271 293 63 270 273 275 219 243 223 214 226 207 205 208 202 199 198 198 193 187 191 196 196 197 201 229 351 358 0 1 359 356 353 351 349 348 348 347 345 343 340 339 339 337 337 335 334 333 333 333 331 330 329 329 331 329 329 330 331 331 331 330 329 325 322
168 117 41 90 131 152 201 255 227 156 133 241 245 130 127 202 251 271 316 285 245 277 291 224 166 271 275 245 244 208 212 234 220 217 213 202 202 200 197 191 189 195 196 193 196 198 225 357 1 1 1 358 353 349 347 346 346 347 345 342 341 339 339 338 337 335 333 332 332 332 331 329 328 327 326 328 328 328 329 329 329 329 328 328 325 322
161 179 209 152 125 198 217 229 190 156 156 245 214 140 135 218 233 254 267 266 289 29 294 250 147 258 272 253 289 196 215 242 230 218 212 203 204 200 194 190 191 196 196 196 197 195 249 357 1 1 0 354 348 345 344 346 346 345 343 341 341 340 339 338 336 333 331 331 331 331 329 328 327 326 325 325 326 327 328 327 328 328 327 326 325 322
202 199 202 158 159 220 218 217 174 162 195 227 165 125 354 25 207 266 276 275 23 57 266 252 154 217 270 223 117 37 234 244 235 221 212 205 205 199 190 188 192 194 193 197 195 193 292 354 2 360 357 350 345 344 345 345 344 343 343 343 342 341 339 337 334 331 330 330 331 330 328 327 326 326 325 324 324 326 326 326 327 326 325 324 323 321
289 128 182 175 201 198 159 132 132 149 167 119 76 24 355 1 25 34 34 69 57 260 255 234 178 197 272 242 176 196 220 221 220 211 201 204 205 197 190 190 193 192 191 192 191 199 289 351 359 355 352 348 345 345 345 344 343 343 343 342 341 340 337 335 332 331 330 330 330 330 328 326 325 325 325 324 324 325 325 325 325 324 323 321 320 319
336 53 233 241 207 144 104 92 43 32 66 87 64 36 355 326 4 24 356 48 83 254 259 223 188 196 241 246 207 228 239 218 207 198 194 202 200 193 191 192 193 192 191 188 189 205 275 342 352 352 348 346 345 344 344 342 341 342 341 341 339 338 336 333 331 330 330 330 330 329 328 326 324 323 323 323 323 324 324 323 323 321 320 319 318 317
308 232 258 322 201 163 119 89 360 1 38 76 80 60 15 323 351 352 300 13 218 247 254 150 172 215 242 246 237 241 246 234 214 204 202 198 188 188 192 192 191 190 189 189 193 217 280 334 345 348 345 344 343 342 341 340 340 341 340 340 338 336 334 331 331 330 330 330 330 329 327 325 324 323 322 321 321 322 322 321 319 318 316 316 316 315
291 297 290 121 254 192 158 138 207 276 90 134 141 134 150 8 337 294 272 277 274 269 260 117 124 258 264 258 236 238 251 250 229 221 215 198 185 188 192 189 188 188 188 192 199 228 279 330 340 344 344 342 340 338 339 340 340 340 340 339 336 333 332 331 330 330 329 330 330 328 326 324 323 322 322 321 320 321 321 319 316 315 313 313 313 313
222 306 228 186 214 178 175 177 165 142 139 176 158 140 160 159 209 259 261 269 292 299 270 151 144 235 252 268 235 249 282 277 236 223 210 193 187 188 187 183 185 186 187 194 204 230 274 322 336 341 341 338 336 337 339 340 340 340 339 336 334 332 331 330 329 329 329 329 329 327 325 324 323 322 323 322 321 320 320 319 316 313 312 311 311 312
185 259 246 242 154 160 173 183 141 112 112 210 126 117 186 183 187 238 243 230 286 309 276 216 220 227 225 273 272 315 335 341 213 190 168 171 179 180 180 181 184 185 187 195 208 230 268 315 332 338 337 333 335 338 339 340 339 338 336 334 332 331 330 330 329 328 329 328 328 327 326 325 323 323 324 323 322 321 319 319 316 314 312 311 311 311
194 264 265 24 11 172 165 164 146 137 172 163 130 186 223 175 145 205 281 309 68 282 272 243 263 275 301 287 296 70 57 56 112 158 155 164 174 176 179 181 183 186 189 198 212 232 267 312 330 333 332 332 336 338 338 339 338 336 334 332 331 331 330 329 329 328 328 328 328 328 327 326 324 324 325 324 323 322 321 320 318 316 314 312 311 311
195 269 252 148 195 228 166 124 59 39 143 133 182 220 212 122 95 115 267 325 72 251 266 251 270 277 276 279 327 73 159 213 190 176 162 168 177 180 182 183 185 188 193 204 216 232 270 314 327 328 332 335 337 338 338 337 335 334 333 332 331 330 329 329 329 328 328 328 328 328 328 327 325 324 325 325 324 322 321 321 319 317 315 313 312 310
142 274 270 152 171 260 34 74 25 328 126 140 207 241 139 164 251 126 149 264 253 262 269 271 283 276 247 230 236 191 206 207 195 186 180 185 187 186 186 185 187 190 196 206 214 230 269 311 326 331 335 337 338 338 337 335 333 333 332 331 330 329 328 329 329 328 328 328 328 328 328 327 325 325 326 326 325 322 320 320 319 318 316 314 311 309
124 228 276 333 325 311 34 122 191 233 354 90 333 313 45 180 208 183 158 207 229 265 274 286 299 283 236 187 198 204 204 195 184 187 197 200 195 190 188 186 187 192 199 206 212 231 273 313 330 335 337 337 337 337 335 334 333 333 331 330 329 328 328 329 329 328 328 328 328 328 328 327 326 326 327 326 325 324 322 321 320 318 316 315 311 309
113 195 251 335 339 258 180 198 192 185 174 160 193 237 238 202 193 253 221 167 202 259 269 282 281 272 228 162 195 197 201 195 181 188 203 202 196 194 191 188 189 195 201 207 215 239 288 319 331 334 335 336 336 336 335 334 333 332 331 330 329 329 329 329 329 329 329 328 329 329 328 328 327 327 327 327 326 326 325 323 321 318 316 314 311 309
159 192 209 206 251 215 222 230 200 188 183 177 186 197 205 201 189 274 254 201 181 237 235 250 273 268 219 166 203 186 195 197 184 191 203 198 195 194 192 192 195 200 203 208 226 261 302 322 330 331 333 335 335 334 334 333 332 331 331 330 330 330 330 330 329 329 329 329 329 329 328 328 328 328 328 328 328 327 327 325 322 319 317 314 312 309
143 134 203 237 230 213 244 283 254 206 201 200 210 196 186 183 172 212 242 225 179 235 226 210 270 267 201 148 203 193 194 187 187 197 199 193 195 193 192 195 198 202 206 215 235 272 306 320 326 329 333 335 334 334 334 333 332 331 330 330 330 331 331 330 330 329 329 329 329 329 328 328 329 329 329 330 329 328 328 326 324 321 317 314 313 310
121 131 213 267 288 309 336 348 3 16 69 238 242 192 184 204 196 206 229 170 200 235 185 194 259 262 292 104 202 190 193 183 190 201 196 188 192 192 192 195 196 200 206 216 233 266 301 316 326 330 333 334 334 334 333 332 331 331 331 331 331 331 331 330 330 329 329 329 329 329 329 329 329 329 330 331 330 329 328 327 324 321 316 314 313 310
171 186 173 252 307 311 319 350 342 329 239 228 238 198 205 218 207 209 14 117 254 238 172 217 258 258 296 15 13 117 171 185 196 201 194 186 188 190 191 192 195 199 202 208 227 260 295 314 326 331 333 334 333 333 333 332 331 331 331 332 332 331 331 330 329 329 329 329 329 329 329 330 330 331 332 333 331 330 328 326 323 320 316 313 311 308
175 194 169 184 244 258 264 266 234 229 217 218 233 214 213 211 202 208 222 222 244 235 187 226 255 262 272 2 325 239 189 193 199 193 193 192 190 190 190 191 194 196 199 207 227 259 294 316 326 330 333 333 332 332 332 332 332 332 331 332 332 331 330 330 330 329 330 329 329 328 330 331 332 333 334 333 332 330 328 326 323 319 316 312 310 308
144 239 202 204 219 231 251 257 204 130 188 230 232 214 202 203 203 204 222 235 236 228 237 243 248 263 268 254 226 237 208 199 202 189 192 196 192 191 191 191 194 195 201 211 230 260 292 318 326 330 332 331 332 332 332 333 334 333 332 332 332 331 331 331 330 329 329 329 328 329 332 334 335 335 334 334 333 330 327 325 322 318 315 314 312 310
97 245 223 218 228 235 249 255 227 148 238 254 257 235 199 192 200 200 219 233 223 146 255 254 247 254 263 256 224 222 216 207 204 193 196 195 191 190 190 190 193 195 202 214 229 254 290 320 327 330 331 331 333 333 333 335 335 333 333 332 332 332 331 330 329 329 329 329 330 332 335 336 336 336 335 334 333 330 327 325 322 318 316 316 314 310
125 241 231 214 233 244 251 257 253 246 256 263 265 256 214 190 200 207 225 234 224 217 249 261 261 257 262 261 234 216 209 208 208 203 201 195 189 188 186 188 193 197 204 212 222 248 293 321 328 332 332 332 333 334 335 337 337 335 334 333 333 332 331 330 330 330 330 330 332 335 337 338 337 336 334 334 333 331 328 326 324 321 318 319 318 314
154 245 241 213 238 253 252 255 255 254 261 266 263 258 235 217 216 216 233 239 234 236 249 261 267 266 267 264 252 235 215 210 210 203 196 189 185 186 187 190 195 199 204 207 215 251 302 325 329 331 332 334 335 336 338 338 337 336 334 334 333 332 331 330 330 331 331 332 335 338 339 339 337 335 334 334 334 332 330 328 326 323 322 322 321 318
193 240 246 187 245 263 255 246 235 242 253 261 264 261 243 238 239 233 240 244 241 245 249 255 263 267 268 264 261 251 219 200 197 192 189 189 188 187 188 192 195 198 202 206 218 265 311 322 326 329 332 336 337 338 338 337 336 335 334 333 332 331 331 331 331 332 333 335 338 340 341 339 337 336 335 336 336 334 333 331 328 326 326 325 323 322
200 224 62 122 236 260 259 232 226 257 276 266 267 264 245 238 242 236 237 238 234 239 248 254 255 257 264 267 258 234 203 186 184 183 186 192 191 189 190 192 197 201 202 206 225 275 311 316 325 334 336 337 338 338 337 335 335 336 334 333 332 331 331 332 333 334 335 337 340 341 341 340 337 336 337 339 339 337 336 334 331 330 329 327 324 323
179 197 185 153 226 258 275 99 119 61 310 269 264 252 228 228 235 238 244 241 232 228 240 247 242 247 260 268 243 225 192 186 195 190 190 191 190 191 194 195 198 202 199 201 228 273 303 316 331 339 338 337 337 337 336 335 335 335 334 333 332 331 332 333 334 336 336 339 342 342 341 340 338 338 340 341 341 339 338 337 334 332 332 329 325 323
183 198 204 175 206 247 178 103 94 190 263 266 263 171 199 212 219 228 240 242 232 217 223 238 247 257 264 254 244 229 191 199 210 207 205 202 195 193 195 197 198 196 193 198 231 268 293 318 334 338 337 336 335 335 336 334 334 335 334 332 331 331 332 334 336 337 338 341 343 343 342 340 339 340 342 343 342 341 340 339 336 335 334 331 327 324
186 196 203 187 191 228 134 94 135 241 249 265 82 147 194 201 203 219 240 248 240 222 224 240 252 255 252 249 246 225 205 212 214 211 210 209 204 196 191 192 192 188 189 199 227 259 285 315 331 335 334 334 335 335 335 335 335 335 334 332 331 332 334 335 337 339 340 342 344 343 343 342 341 342 345 345 344 343 342 340 337 336 336 333 329 325
182 186 189 173 165 204 134 157 221 254 292 299 279 192 149 169 184 209 256 263 249 224 220 232 243 249 249 252 249 222 204 200 194 203 208 204 202 195 189 190 187 184 191 202 217 242 277 316 328 333 332 332 334 334 334 335 335 335 335 333 333 333 335 337 338 340 342 344 344 344 345 344 344 345 347 347 345 344 342 340 338 337 337 335 331 328
179 180 190 189 195 211 207 218 242 299 310 292 275 207 152 196 185 172 256 272 254 201 207 223 238 247 246 240 208 167 155 145 147 199 198 187 187 192 193 190 182 181 193 202 211 228 266 322 325 328 328 329 332 333 333 335 336 336 335 334 334 334 335 338 339 341 344 345 345 346 347 348 348 349 349 348 347 344 342 340 339 339 339 336 333 331
191 188 190 196 212 211 215 244 263 274 273 269 261 170 174 181 160 142 236 281 255 180 196 214 230 239 234 161 141 140 135 134 211 212 188 178 180 186 184 181 179 184 195 199 208 224 259 316 316 319 324 328 331 331 333 335 336 336 335 334 334 335 336 338 341 343 344 345 346 348 350 351 352 352 351 349 346 343 342 341 339 338 339 337 335 333
198 201 186 196 216 196 206 236 231 239 255 247 168 159 151 137 132 106 41 281 252 184 192 205 216 224 193 144 151 143 134 181 247 213 186 181 182 181 178 179 183 188 195 195 203 223 250 297 306 312 322 325 327 330 333 336 336 336 335 335 334 335 337 340 342 343 344 345 347 349 352 354 354 354 353 350 347 344 341 338 337 337 337 336 334 333
189 179 164 199 221 211 212 232 228 247 255 219 146 163 155 139 126 90 321 266 238 167 185 193 200 204 168 152 157 153 169 206 231 208 185 179 178 180 181 185 188 190 196 196 201 218 239 279 296 307 318 324 328 332 334 335 336 336 335 335 335 337 339 340 341 343 345 346 348 351 355 357 357 356 356 352 347 344 341 339 337 336 336 336 336 336
190 188 186 210 225 220 217 228 245 263 249 183 148 162 154 132 110 125 250 230 171 165 186 184 188 191 170 160 166 183 203 211 218 191 178 174 174 178 184 192 193 194 201 203 209 225 239 268 290 305 319 325 329 332 332 333 336 336 335 335 336 338 340 340 341 344 346 347 349 352 356 359 359 359 358 354 349 345 344 343 340 338 340 342 341 339
170 166 207 221 223 220 224 227 256 274 242 158 151 160 151 135 213 239 209 152 150 170 184 183 188 188 178 178 185 192 199 200 186 173 172 173 177 181 185 191 192 196 205 205 211 225 237 267 290 305 318 326 329 330 331 333 335 336 335 335 337 339 340 341 342 344 346 347 349 353 358 1 2 1 359 356 352 348 347 346 345 345 347 347 346 347
167 155 196 215 193 168 225 208 226 268 204 144 142 152 161 188 230 190 133 134 162 171 175 182 190 190 186 188 189 189 186 175 169 170 170 175 181 183 186 191 193 202 209 206 213 227 240 266 290 306 318 326 330 329 331 333 334 335 336 335 338 339 340 342 343 344 346 348 350 355 359 2 4 4 2 360 356 352 350 350 350 352 354 352 352 354
169 175 190 208 178 149 195 206 211 266 162 152 152 171 200 207 211 159 148 167 174 171 174 181 190 195 194 191 185 181 176 165 165 169 170 176 183 185 188 193 198 206 209 208 217 228 243 266 289 310 320 326 331 330 330 332 333 336 336 336 338 340 341 343 343 344 347 350 352 356 0 4 5 6 6 5 1 356 354 354 355 356 357 358 359 358
197 194 181 191 187 180 211 218 198 106 165 174 181 207 205 204 210 181 171 176 174 178 181 184 189 194 196 193 184 176 173 169 169 173 175 179 184 187 191 197 202 206 209 212 219 229 246 269 291 312 320 326 330 330 330 332 334 337 338 338 340 340 341 343 344 345 348 351 354 357 0 4 6 7 8 9 7 3 358 358 0 1 1 3 3 1
214 199 151 119 201 212 253 253 216 154 174 190 200 224 218 203 203 194 183 178 177 183 185 185 191 193 192 193 186 177 177 177 174 177 180 182 185 191 197 202 205 207 210 214 221 233 252 274 297 312 321 326 329 330 332 334 335 338 339 339 340 342 342 344 345 348 350 352 356 359 1 4 6 8 9 11 12 10 6 4 4 5 5 5 5 2
221 190 190 214 190 193 246 252 226 196 192 196 205 218 222 209 203 199 195 189 185 189 187 183 189 194 194 195 191 185 184 181 177 179 182 184 190 197 200 203 205 207 211 217 224 236 254 276 297 312 321 326 329 332 334 335 337 339 339 340 341 343 344 346 348 350 352 354 357 1 3 5 6 8 10 12 14 15 14 12 10 9 9 8 4 1
186 169 187 222 216 210 233 248 204 192 203 203 206 211 212 208 204 202 202 199 192 191 190 185 185 191 194 196 196 192 187 183 183 185 187 190 196 200 202 204 207 208 212 218 225 237 255 276 297 312 322 327 331 334 335 336 339 341 341 342 343 344 347 350 352 353 354 356 359 3 5 6 7 9 11 12 13 16 18 18 16 15 15 13 6 359
147 156 174 206 213 234 246 240 92 118 222 216 211 213 213 208 204 201 200 199 194 189 190 190 190 193 196 197 198 194 189 187 191 194 194 195 198 201 204 205 206 209 214 219 225 238 254 276 298 314 324 329 334 336 336 339 342 343 343 345 346 347 350 353 355 357 358 359 2 5 7 8 9 11 11 11 12 15 19 23 23 20 18 20 16 5
155 188 182 166 200 233 241 224 188 183 235 225 212 213 213 208 204 200 195 194 194 192 191 192 191 193 198 200 199 196 192 192 195 198 199 200 201 204 207 207 206 209 213 218 225 237 252 275 299 316 326 332 335 336 338 342 344 345 346 348 349 350 353 355 357 360 1 3 5 7 8 9 11 13 14 13 12 12 16 24 29 28 24 23 23 20
196 207 192 188 218 232 234 222 204 201 229 233 216 211 210 206 203 201 198 197 197 195 194 194 191 190 195 199 198 198 198 196 196 198 199 201 203 207 207 207 208 209 211 216 224 234 251 275 302 319 327 334 337 337 341 346 346 347 349 351 353 354 355 357 360 1 3 5 9 10 10 11 13 15 16 17 15 12 12 16 22 29 32 29 27 26